Location: Unspecified
(0.0000°N, 0.0000°E)
Time: 04:15:07
(UTC+00:00)

Asterix - Visible Passes

Search period start: 04 August 2021 00:00
Search period end: 14 August 2021 00:00
Orbit: 522 x 1644 km, 34.3° (Epoch: 03 August)

Date Brightness Start Highest point End Pass type
(mag) Time Alt. Az. Time Alt. Az. Time Alt. Az.
04 Aug ? 04:14:53 14° SSE 04:14:53 14° SSE 04:15:44 10° SSE visible
08 Aug ? 21:39:30 10° N 21:41:10 12° N 21:41:10 12° N visible
09 Aug ? 22:36:17 10° NNW 22:36:35 11° NNW 22:36:35 11° NNW visible
10 Aug ? 21:42:23 10° NNW 21:45:13 17° N 21:45:13 17° N visible
11 Aug ? 20:48:57 10° N 20:53:55 16° NNE 20:53:55 16° NNE visible
11 Aug ? 22:40:26 10° NW 22:40:44 11° NW 22:40:44 11° NW visible
12 Aug ? 19:56:42 10° N 19:59:35 11° NNE 20:02:32 10° NE visible
12 Aug ? 21:46:15 10° NNW 21:49:29 21° NNW 21:49:29 21° NNW visible
13 Aug ? 20:52:25 10° NNW 20:58:17 25° NNE 20:58:17 25° NNE visible
